When you browse on this site, cookies collect data to enhance your experience and personalize the content and advertising you see.
Visit our Privacy Policy to learn more. By continuing to use the site, you agree to this use of cookies and data.
  • Em Portugal
  • Lista de países
  • Para 7 dias
  • Temperatura da água
  • Mapas de satélite
  • Mapa do tempo
  • Widgets de tempo
  • user-avatar
    Iniciar Sessão

    Previsão horária em Pernik

    Hoje, 21 Abril, Domingo

    Tempo Temperatura Precipitação Vento Pressão Humidade
    00:00 +2°C° 0 mm 0 m/s 697 mmHg 75%
    01:00 +2°C° 0 mm 0 m/s 696 mmHg 75%
    02:00 +2°C° 0 mm 0 m/s 696 mmHg 75%
    03:00 +1°C° 0 mm 0 m/s 696 mmHg 75%
    04:00 +1°C° 0 mm 0 m/s 696 mmHg 74%
    05:00 +2°C° 0 mm 1 m/s 696 mmHg 73%
    06:00 +4°C° 0 mm 1 m/s 696 mmHg 66%
    07:00 +6°C° 0 mm 1 m/s 696 mmHg 59%
    08:00 +8°C° 0 mm 1 m/s 696 mmHg 51%
    09:00 +10°C° 0 mm 1 m/s 696 mmHg 48%
    10:00 +12°C° 0 mm 1 m/s 696 mmHg 45%
    11:00 +14°C° 0 mm 1 m/s 696 mmHg 41%
    12:00 +14°C° 0 mm 1 m/s 696 mmHg 39%
    13:00 +15°C° 0 mm 1 m/s 695 mmHg 37%
    14:00 +16°C° 0 mm 1 m/s 695 mmHg 35%
    15:00 +16°C° 0 mm 1 m/s 695 mmHg 36%
    16:00 +15°C° 0 mm 1 m/s 694 mmHg 38%
    17:00 +15°C° 0 mm 1 m/s 694 mmHg 39%
    18:00 +13°C° 0 mm 1 m/s 693 mmHg 46%
    19:00 +11°C° 0 mm 1 m/s 693 mmHg 53%
    20:00 +9°C° 0 mm 1 m/s 693 mmHg 60%
    21:00 +8°C° 0 mm 1 m/s 693 mmHg 62%
    22:00 +7°C° 0 mm 1 m/s 693 mmHg 64%
    23:00 +7°C° 0 mm 1 m/s 693 mmHg 66%

    Amanhã, 22 Abril, Segunda-feira

    Tempo Temperatura Precipitação Vento Pressão Humidade
    00:00 +6°C° 0 mm 1 m/s 693 mmHg 66%
    01:00 +6°C° 0 mm 1 m/s 693 mmHg 66%
    02:00 +5°C° 0 mm 1 m/s 692 mmHg 67%
    03:00 +5°C° 0 mm 1 m/s 692 mmHg 67%
    04:00 +5°C° 0 mm 1 m/s 692 mmHg 68%
    05:00 +4°C° 0 mm 1 m/s 692 mmHg 68%
    06:00 +6°C° 0 mm 1 m/s 692 mmHg 63%
    07:00 +8°C° 0 mm 1 m/s 692 mmHg 59%
    08:00 +10°C° 0 mm 1 m/s 692 mmHg 54%
    09:00 +12°C° 0 mm 2 m/s 692 mmHg 48%
    10:00 +14°C° 0 mm 2 m/s 692 mmHg 42%
    11:00 +16°C° 0 mm 2 m/s 693 mmHg 37%
    12:00 +17°C° 0 mm 3 m/s 692 mmHg 35%
    13:00 +18°C° 0 mm 3 m/s 692 mmHg 33%
    14:00 +19°C° 0 mm 4 m/s 692 mmHg 31%
    15:00 +18°C° 0 mm 4 m/s 692 mmHg 36%
    16:00 +18°C° 0 mm 4 m/s 691 mmHg 40%
    17:00 +17°C° 0 mm 4 m/s 691 mmHg 45%
    18:00 +14°C° 0 mm 4 m/s 690 mmHg 52%
    19:00 +12°C° 0 mm 3 m/s 690 mmHg 60%
    20:00 +10°C° 0 mm 3 m/s 690 mmHg 68%
    21:00 +10°C° 0 mm 3 m/s 690 mmHg 71%
    22:00 +9°C° 0 mm 2 m/s 691 mmHg 74%
    23:00 +9°C° 0 mm 2 m/s 691 mmHg 77%

    Depois de amanhã, 23 Abril, Terça-feira

    Tempo Temperatura Precipitação Vento Pressão Humidade
    00:00 +8°C° 0.6 mm 2 m/s 691 mmHg 81%
    01:00 +8°C° 0.6 mm 2 m/s 691 mmHg 85%
    02:00 +8°C° 0.6 mm 2 m/s 692 mmHg 90%
    03:00 +7°C° 1.1 mm 2 m/s 692 mmHg 90%
    04:00 +7°C° 1.1 mm 2 m/s 692 mmHg 91%
    05:00 +7°C° 1.1 mm 2 m/s 692 mmHg 92%
    06:00 +7°C° 0.3 mm 2 m/s 692 mmHg 89%
    07:00 +7°C° 0.3 mm 3 m/s 692 mmHg 87%
    08:00 +8°C° 0.3 mm 3 m/s 692 mmHg 85%
    09:00 +10°C° 0 mm 3 m/s 692 mmHg 76%
    10:00 +12°C° 0 mm 4 m/s 693 mmHg 68%
    11:00 +14°C° 0 mm 5 m/s 693 mmHg 59%
    12:00 +15°C° 0 mm 5 m/s 693 mmHg 56%
    13:00 +16°C° 0 mm 6 m/s 693 mmHg 52%
    14:00 +17°C° 0 mm 7 m/s 693 mmHg 48%
    15:00 +17°C° 0 mm 6 m/s 693 mmHg 50%
    16:00 +16°C° 0 mm 6 m/s 693 mmHg 53%
    17:00 +15°C° 0 mm 6 m/s 692 mmHg 55%
    18:00 +14°C° 0 mm 5 m/s 692 mmHg 60%
    19:00 +12°C° 0 mm 3 m/s 692 mmHg 66%
    20:00 +12°C° 0 mm 2 m/s 692 mmHg 71%
    21:00 +10°C° 0 mm 2 m/s 692 mmHg 75%
    22:00 +9°C° 0 mm 2 m/s 693 mmHg 78%
    23:00 +8°C° 0 mm 2 m/s 693 mmHg 82%

    24 Abril, Quarta-feira

    Tempo Temperatura Precipitação Vento Pressão Humidade
    00:00 +8°C° 0 mm 2 m/s 693 mmHg 83%
    01:00 +7°C° 0 mm 2 m/s 693 mmHg 84%
    02:00 +7°C° 0 mm 2 m/s 694 mmHg 84%
    03:00 +8°C° 0 mm 1 m/s 694 mmHg 84%
    04:00 +7°C° 0 mm 1 m/s 694 mmHg 84%
    05:00 +7°C° 0 mm 1 m/s 694 mmHg 84%
    06:00 +9°C° 0 mm 1 m/s 695 mmHg 77%
    07:00 +11°C° 0 mm 1 m/s 695 mmHg 70%
    08:00 +13°C° 0 mm 1 m/s 696 mmHg 64%
    09:00 +15°C° 0 mm 1 m/s 696 mmHg 57%
    10:00 +17°C° 0 mm 2 m/s 696 mmHg 51%
    11:00 +20°C° 0 mm 2 m/s 697 mmHg 44%
    12:00 +21°C° 0 mm 2 m/s 697 mmHg 42%
    13:00 +23°C° 0 mm 2 m/s 696 mmHg 39%
    14:00 +24°C° 0 mm 3 m/s 696 mmHg 37%
    15:00 +22°C° 0 mm 3 m/s 696 mmHg 39%
    16:00 +22°C° 0 mm 3 m/s 696 mmHg 41%
    17:00 +22°C° 0 mm 3 m/s 695 mmHg 42%
    18:00 +19°C° 0 mm 3 m/s 695 mmHg 51%
    19:00 +17°C° 0 mm 2 m/s 695 mmHg 59%
    20:00 +15°C° 0 mm 2 m/s 695 mmHg 68%
    21:00 +14°C° 0 mm 2 m/s 695 mmHg 73%
    22:00 +13°C° 0 mm 1 m/s 695 mmHg 79%
    23:00 +12°C° 0 mm 1 m/s 695 mmHg 84%

    25 Abril, Quinta-feira

    Tempo Temperatura Precipitação Vento Pressão Humidade
    00:00 +11°C° 0 mm 1 m/s 695 mmHg 86%
    01:00 +11°C° 0 mm 1 m/s 695 mmHg 87%
    02:00 +11°C° 0 mm 1 m/s 695 mmHg 88%
    03:00 +10°C° 0 mm 1 m/s 695 mmHg 87%
    04:00 +10°C° 0 mm 1 m/s 695 mmHg 87%
    05:00 +10°C° 0 mm 1 m/s 695 mmHg 87%
    06:00 +12°C° 0 mm 1 m/s 695 mmHg 80%
    07:00 +13°C° 0 mm 1 m/s 696 mmHg 73%
    08:00 +15°C° 0 mm 1 m/s 697 mmHg 67%
    09:00 +18°C° 0 mm 1 m/s 697 mmHg 60%
    10:00 +20°C° 0 mm 1 m/s 697 mmHg 53%
    11:00 +21°C° 0 mm 2 m/s 697 mmHg 47%
    12:00 +23°C° 0 mm 2 m/s 697 mmHg 44%
    13:00 +24°C° 0 mm 2 m/s 697 mmHg 41%
    14:00 +25°C° 0 mm 2 m/s 697 mmHg 39%
    15:00 +24°C° 0 mm 2 m/s 697 mmHg 41%
    16:00 +24°C° 0 mm 2 m/s 696 mmHg 43%
    17:00 +24°C° 0 mm 2 m/s 696 mmHg 45%
    18:00 +20°C° 0 mm 2 m/s 695 mmHg 53%
    19:00 +18°C° 0 mm 2 m/s 695 mmHg 61%
    20:00 +16°C° 0 mm 2 m/s 695 mmHg 68%
    21:00 +16°C° 0 mm 2 m/s 695 mmHg 72%
    22:00 +15°C° 0 mm 1 m/s 695 mmHg 75%
    23:00 +14°C° 0 mm 1 m/s 695 mmHg 79%

    26 Abril, Sexta-feira

    Tempo Temperatura Precipitação Vento Pressão Humidade
    00:00 +14°C° 0 mm 1 m/s 694 mmHg 81%
    01:00 +13°C° 0 mm 1 m/s 694 mmHg 83%
    02:00 +13°C° 0 mm 1 m/s 694 mmHg 85%
    03:00 +13°C° 0 mm 1 m/s 694 mmHg 86%
    04:00 +12°C° 0 mm 1 m/s 694 mmHg 87%
    05:00 +12°C° 0 mm 1 m/s 693 mmHg 88%
    06:00 +13°C° 0 mm 1 m/s 694 mmHg 82%
    07:00 +15°C° 0 mm 1 m/s 694 mmHg 75%
    08:00 +16°C° 0 mm 1 m/s 694 mmHg 69%
    09:00 +19°C° 0 mm 1 m/s 694 mmHg 62%
    10:00 +21°C° 0 mm 1 m/s 694 mmHg 54%
    11:00 +23°C° 0 mm 1 m/s 695 mmHg 47%
    12:00 +24°C° 0 mm 1 m/s 694 mmHg 43%
    13:00 +25°C° 0 mm 1 m/s 694 mmHg 40%
    14:00 +26°C° 0 mm 1 m/s 693 mmHg 36%
    15:00 +25°C° 0.1 mm 1 m/s 693 mmHg 39%
    16:00 +24°C° 0.1 mm 1 m/s 692 mmHg 43%
    17:00 +23°C° 0.1 mm 1 m/s 692 mmHg 46%
    18:00 +22°C° 0.1 mm 1 m/s 691 mmHg 53%
    19:00 +20°C° 0.1 mm 1 m/s 691 mmHg 60%
    20:00 +18°C° 0.1 mm 1 m/s 691 mmHg 66%
    21:00 +16°C° 0 mm 1 m/s 691 mmHg 70%
    22:00 +15°C° 0 mm 1 m/s 691 mmHg 74%
    23:00 +15°C° 0 mm 1 m/s 691 mmHg 78%
    Mostrar mais